Time,TemperatureF,DewpointF,PressureIn,WindDirection,WindDirectionDegrees,WindSpeedMPH,WindSpeedGustMPH,Humidity,HourlyPrecipIn,Conditions,Clouds,dailyrainin,SoftwareType,DateUTC
2013-02-03 00:01:00,16.0,8.9,30.60,WNW,289,2.0,2.0,73,0.00,,,0.00,Wunderground v.1.15,2013-02-03 07:01:00,
2013-02-03 00:06:00,16.1,9.3,30.60,WNW,289,0.0,2.0,74,0.00,,,0.00,Wunderground v.1.15,2013-02-03 07:06:00,
2013-02-03 00:11:00,16.2,9.1,30.59,WNW,289,1.0,1.0,73,0.00,,,0.00,Wunderground v.1.15,2013-02-03 07:11:00,
2013-02-03 00:16:00,16.5,9.4,30.59,WNW,289,1.0,2.0,73,0.00,,,0.00,Wunderground v.1.15,2013-02-03 07:16:00,
2013-02-03 00:21:00,16.7,9.2,30.59,WNW,288,0.0,1.0,72,0.00,,,0.00,Wunderground v.1.15,2013-02-03 07:21:00,
2013-02-03 00:26:00,16.8,9.0,30.59,WNW,288,0.0,2.0,71,0.00,,,0.00,Wunderground v.1.15,2013-02-03 07:26:00,
2013-02-03 00:31:00,16.7,8.6,30.58,WNW,289,0.0,0.0,70,0.00,,,0.00,Wunderground v.1.15,2013-02-03 07:31:00,
2013-02-03 00:36:00,16.5,8.4,30.58,WNW,289,2.0,3.0,70,0.00,,,0.00,Wunderground v.1.15,2013-02-03 07:36:00,
2013-02-03 00:41:00,16.3,7.9,30.58,WNW,288,3.0,4.0,69,0.00,,,0.00,Wunderground v.1.15,2013-02-03 07:41:00,
2013-02-03 00:46:00,16.1,7.4,30.58,WNW,289,6.0,6.0,68,0.00,,,0.00,Wunderground v.1.15,2013-02-03 07:46:00,
2013-02-03 00:51:00,16.0,7.0,30.58,WNW,289,7.0,7.0,67,0.00,,,0.00,Wunderground v.1.15,2013-02-03 07:51:00,
2013-02-03 00:56:00,16.0,7.0,30.58,WNW,289,6.0,9.0,67,0.00,,,0.00,Wunderground v.1.15,2013-02-03 07:56:00,
2013-02-03 01:01:00,15.3,5.6,30.57,WNW,288,7.0,7.0,65,0.00,,,0.00,Wunderground v.1.15,2013-02-03 08:01:00,
2013-02-03 01:06:00,14.1,4.8,30.57,WNW,289,8.0,8.0,66,0.00,,,0.00,Wunderground v.1.15,2013-02-03 08:06:00,
2013-02-03 01:11:00,14.5,6.2,30.57,WNW,286,8.0,9.0,69,0.00,,,0.00,Wunderground v.1.15,2013-02-03 08:11:00,
2013-02-03 01:16:00,15.3,6.9,30.57,WNW,286,5.0,9.0,69,0.00,,,0.00,Wunderground v.1.15,2013-02-03 08:16:00,
2013-02-03 01:21:00,15.6,7.2,30.57,WNW,287,7.0,8.0,69,0.00,,,0.00,Wunderground v.1.15,2013-02-03 08:21:00,
2013-02-03 01:26:00,16.0,7.3,30.56,WNW,288,6.0,8.0,68,0.00,,,0.00,Wunderground v.1.15,2013-02-03 08:26:00,
2013-02-03 01:31:00,16.5,7.8,30.56,WNW,288,5.0,7.0,68,0.00,,,0.00,Wunderground v.1.15,2013-02-03 08:31:00,
2013-02-03 01:36:00,16.4,7.3,30.56,WNW,288,4.0,7.0,67,0.00,,,0.00,Wunderground v.1.15,2013-02-03 08:36:00,
2013-02-03 01:41:00,16.0,7.0,30.56,WNW,289,4.0,5.0,67,0.00,,,0.00,Wunderground v.1.15,2013-02-03 08:41:00,
2013-02-03 01:46:00,15.3,6.3,30.56,WNW,289,3.0,5.0,67,0.00,,,0.00,Wunderground v.1.15,2013-02-03 08:46:00,
2013-02-03 01:51:00,14.7,6.0,30.55,WNW,288,3.0,4.0,68,0.00,,,0.00,Wunderground v.1.15,2013-02-03 08:51:00,
2013-02-03 01:56:00,14.2,5.6,30.55,WNW,288,3.0,4.0,68,0.00,,,0.00,Wunderground v.1.15,2013-02-03 08:56:00,
2013-02-03 02:01:00,13.5,5.2,30.55,WNW,288,4.0,5.0,69,0.00,,,0.00,Wunderground v.1.15,2013-02-03 09:01:00,
2013-02-03 02:06:00,12.7,4.4,30.54,WNW,287,6.0,6.0,69,0.00,,,0.00,Wunderground v.1.15,2013-02-03 09:06:00,
2013-02-03 02:11:00,11.6,3.4,30.54,WNW,287,6.0,7.0,69,0.00,,,0.00,Wunderground v.1.15,2013-02-03 09:11:00,
2013-02-03 02:16:00,11.6,4.0,30.54,WNW,287,5.0,7.0,71,0.00,,,0.00,Wunderground v.1.15,2013-02-03 09:16:00,
2013-02-03 02:21:00,12.2,4.9,30.54,WNW,287,5.0,5.0,72,0.00,,,0.00,Wunderground v.1.15,2013-02-03 09:21:00,
2013-02-03 02:26:00,12.8,5.5,30.54,WNW,287,6.0,7.0,72,0.00,,,0.00,Wunderground v.1.15,2013-02-03 09:26:00,
2013-02-03 02:31:00,13.4,5.7,30.54,WNW,287,5.0,6.0,71,0.00,,,0.00,Wunderground v.1.15,2013-02-03 09:31:00,
2013-02-03 02:36:00,13.1,4.8,30.54,WNW,287,3.0,6.0,69,0.00,,,0.00,Wunderground v.1.15,2013-02-03 09:36:00,
2013-02-03 02:41:00,12.8,4.9,30.54,WNW,287,6.0,6.0,70,0.00,,,0.00,Wunderground v.1.15,2013-02-03 09:41:00,
2013-02-03 02:46:00,12.8,5.2,30.54,WNW,287,6.0,7.0,71,0.00,,,0.00,Wunderground v.1.15,2013-02-03 09:46:00,
2013-02-03 02:51:00,13.0,5.4,30.53,WNW,287,6.0,7.0,71,0.00,,,0.00,Wunderground v.1.15,2013-02-03 09:51:00,
2013-02-03 02:56:00,13.5,5.5,30.53,WNW,287,5.0,7.0,70,0.00,,,0.00,Wunderground v.1.15,2013-02-03 09:56:00,
2013-02-03 03:01:00,13.9,5.9,30.53,WNW,287,6.0,6.0,70,0.00,,,0.00,Wunderground v.1.15,2013-02-03 10:01:00,
2013-02-03 03:06:00,14.2,5.9,30.53,WNW,287,5.0,6.0,69,0.00,,,0.00,Wunderground v.1.15,2013-02-03 10:06:00,
2013-02-03 03:11:00,14.2,5.9,30.53,WNW,287,5.0,5.0,69,0.00,,,0.00,Wunderground v.1.15,2013-02-03 10:11:00,
2013-02-03 03:16:00,14.1,5.8,30.52,WNW,287,4.0,5.0,69,0.00,,,0.00,Wunderground v.1.15,2013-02-03 10:16:00,
2013-02-03 03:21:00,13.8,5.2,30.52,WNW,287,4.0,5.0,68,0.00,,,0.00,Wunderground v.1.15,2013-02-03 10:21:00,
2013-02-03 03:26:00,12.9,4.3,30.51,WNW,287,4.0,5.0,68,0.00,,,0.00,Wunderground v.1.15,2013-02-03 10:26:00,
2013-02-03 03:31:00,12.1,3.6,30.51,WNW,287,5.0,5.0,68,0.00,,,0.00,Wunderground v.1.15,2013-02-03 10:31:00,
2013-02-03 03:36:00,11.3,3.1,30.52,WNW,287,4.0,6.0,69,0.00,,,0.00,Wunderground v.1.15,2013-02-03 10:36:00,
2013-02-03 03:41:00,10.7,2.8,30.51,WNW,287,5.0,6.0,70,0.00,,,0.00,Wunderground v.1.15,2013-02-03 10:41:00,
2013-02-03 03:46:00,10.6,3.0,30.51,WNW,287,6.0,7.0,71,0.00,,,0.00,Wunderground v.1.15,2013-02-03 10:46:00,
2013-02-03 03:51:00,9.9,2.7,30.52,WNW,287,5.0,6.0,72,0.00,,,0.00,Wunderground v.1.15,2013-02-03 10:51:00,
2013-02-03 03:56:00,10.6,3.3,30.51,WNW,287,5.0,6.0,72,0.00,,,0.00,Wunderground v.1.15,2013-02-03 10:56:00,
2013-02-03 04:01:00,11.9,5.2,30.51,WNW,287,4.0,5.0,74,0.00,,,0.00,Wunderground v.1.15,2013-02-03 11:01:00,
2013-02-03 04:06:00,12.3,5.0,30.51,WNW,287,3.0,5.0,72,0.00,,,0.00,Wunderground v.1.15,2013-02-03 11:06:00,
2013-02-03 04:11:00,12.1,4.2,30.51,WNW,287,4.0,4.0,70,0.00,,,0.00,Wunderground v.1.15,2013-02-03 11:11:00,
2013-02-03 04:16:00,12.2,4.6,30.51,WNW,287,3.0,4.0,71,0.00,,,0.00,Wunderground v.1.15,2013-02-03 11:16:00,
2013-02-03 04:21:00,12.6,5.0,30.50,WNW,287,4.0,4.0,71,0.00,,,0.00,Wunderground v.1.15,2013-02-03 11:21:00,
2013-02-03 04:26:00,13.0,5.4,30.50,WNW,287,2.0,4.0,71,0.00,,,0.00,Wunderground v.1.15,2013-02-03 11:26:00,
2013-02-03 04:31:00,13.1,5.1,30.51,WNW,287,3.0,4.0,70,0.00,,,0.00,Wunderground v.1.15,2013-02-03 11:31:00,
2013-02-03 04:36:00,13.1,4.8,30.51,WNW,287,4.0,5.0,69,0.00,,,0.00,Wunderground v.1.15,2013-02-03 11:36:00,
2013-02-03 04:41:00,13.3,5.0,30.51,WNW,287,4.0,4.0,69,0.00,,,0.00,Wunderground v.1.15,2013-02-03 11:41:00,
2013-02-03 04:46:00,12.9,4.3,30.51,WNW,287,4.0,6.0,68,0.00,,,0.00,Wunderground v.1.15,2013-02-03 11:46:00,
2013-02-03 04:51:00,11.7,3.2,30.51,WNW,287,3.0,4.0,68,0.00,,,0.00,Wunderground v.1.15,2013-02-03 11:51:00,
2013-02-03 04:56:00,10.9,2.4,30.51,WNW,287,3.0,4.0,68,0.00,,,0.00,Wunderground v.1.15,2013-02-03 11:56:00,
2013-02-03 05:01:00,10.0,1.9,30.50,WNW,287,6.0,6.0,69,0.00,,,0.00,Wunderground v.1.15,2013-02-03 12:01:00,
2013-02-03 05:06:00,10.1,2.6,30.50,WNW,286,6.0,7.0,71,0.00,,,0.00,Wunderground v.1.15,2013-02-03 12:06:00,
2013-02-03 05:11:00,10.4,3.2,30.50,WNW,287,5.0,6.0,72,0.00,,,0.00,Wunderground v.1.15,2013-02-03 12:11:00,
2013-02-03 05:16:00,10.4,3.2,30.50,WNW,294,4.0,6.0,72,0.00,,,0.00,Wunderground v.1.15,2013-02-03 12:16:00,
2013-02-03 05:21:00,10.6,3.3,30.49,WNW,291,6.0,6.0,72,0.00,,,0.00,Wunderground v.1.15,2013-02-03 12:21:00,
2013-02-03 05:26:00,11.0,3.7,30.49,WNW,292,5.0,7.0,72,0.00,,,0.00,Wunderground v.1.15,2013-02-03 12:26:00,
2013-02-03 05:31:00,10.9,3.3,30.49,WNW,292,5.0,7.0,71,0.00,,,0.00,Wunderground v.1.15,2013-02-03 12:31:00,
2013-02-03 05:36:00,10.7,3.1,30.48,WNW,291,5.0,7.0,71,0.00,,,0.00,Wunderground v.1.15,2013-02-03 12:36:00,
2013-02-03 05:41:00,10.7,3.1,30.48,WNW,291,6.0,6.0,71,0.00,,,0.00,Wunderground v.1.15,2013-02-03 12:41:00,
2013-02-03 05:46:00,10.3,2.4,30.48,NW,304,3.0,6.0,70,0.00,,,0.00,Wunderground v.1.15,2013-02-03 12:46:00,
2013-02-03 05:51:00,10.0,2.2,30.49,NW,304,3.0,5.0,70,0.00,,,0.00,Wunderground v.1.15,2013-02-03 12:51:00,
2013-02-03 05:56:00,9.6,1.5,30.49,NW,304,2.0,5.0,69,0.00,,,0.00,Wunderground v.1.15,2013-02-03 12:56:00,
2013-02-03 06:01:00,9.3,1.8,30.49,NW,304,4.0,4.0,71,0.00,,,0.00,Wunderground v.1.15,2013-02-03 13:01:00,
2013-02-03 06:06:00,9.2,2.0,30.48,NW,304,0.0,4.0,72,0.00,,,0.00,Wunderground v.1.15,2013-02-03 13:06:00,
2013-02-03 06:11:00,9.0,1.5,30.48,WNW,303,0.0,2.0,71,0.00,,,0.00,Wunderground v.1.15,2013-02-03 13:11:00,
2013-02-03 06:16:00,8.0,0.2,30.48,WNW,303,0.0,2.0,70,0.00,,,0.00,Wunderground v.1.15,2013-02-03 13:16:00,
2013-02-03 06:21:00,7.8,0.6,30.48,NW,304,0.0,0.0,72,0.00,,,0.00,Wunderground v.1.15,2013-02-03 13:21:00,
2013-02-03 06:26:00,7.8,0.9,30.48,NW,304,0.0,0.0,73,0.00,,,0.00,Wunderground v.1.15,2013-02-03 13:26:00,
2013-02-03 06:31:00,7.8,0.9,30.47,WNW,303,0.0,0.0,73,0.00,,,0.00,Wunderground v.1.15,2013-02-03 13:31:00,
2013-02-03 06:36:00,7.8,0.9,30.47,NW,304,0.0,0.0,73,0.00,,,0.00,Wunderground v.1.15,2013-02-03 13:36:00,
2013-02-03 06:41:00,8.0,1.4,30.47,NW,304,0.0,0.0,74,0.00,,,0.00,Wunderground v.1.15,2013-02-03 13:41:00,
2013-02-03 06:46:00,7.8,0.9,30.47,NW,304,2.0,3.0,73,0.00,,,0.00,Wunderground v.1.15,2013-02-03 13:46:00,
2013-02-03 06:51:00,7.4,0.6,30.47,NW,304,2.0,3.0,73,0.00,,,0.00,Wunderground v.1.15,2013-02-03 13:51:00,
2013-02-03 06:56:00,8.0,1.4,30.48,WNW,303,0.0,3.0,74,0.00,,,0.00,Wunderground v.1.15,2013-02-03 13:56:00,
2013-02-03 07:01:00,7.8,0.9,30.48,WNW,303,2.0,3.0,73,0.00,,,0.00,Wunderground v.1.15,2013-02-03 14:01:00,
2013-02-03 07:06:00,7.7,0.8,30.48,NW,304,3.0,4.0,73,0.00,,,0.00,Wunderground v.1.15,2013-02-03 14:06:00,
2013-02-03 07:11:00,7.7,0.8,30.48,NW,304,3.0,3.0,73,0.00,,,0.00,Wunderground v.1.15,2013-02-03 14:11:00,
2013-02-03 07:16:00,7.8,1.2,30.47,WNW,303,4.0,4.0,74,0.00,,,0.00,Wunderground v.1.15,2013-02-03 14:16:00,
2013-02-03 07:21:00,9.1,3.1,30.47,WNW,300,5.0,5.0,76,0.00,,,0.00,Wunderground v.1.15,2013-02-03 14:21:00,
2013-02-03 07:27:00,9.9,3.3,30.47,WNW,296,5.0,6.0,74,0.00,,,0.00,Wunderground v.1.15,2013-02-03 14:27:00,
2013-02-03 07:32:00,10.2,3.3,30.46,WNW,296,2.0,5.0,73,0.00,,,0.00,Wunderground v.1.15,2013-02-03 14:32:00,
2013-02-03 07:37:00,9.4,1.9,30.46,WNW,296,5.0,5.0,71,0.00,,,0.00,Wunderground v.1.15,2013-02-03 14:37:00,
2013-02-03 07:42:00,9.1,1.6,30.47,WNW,296,4.0,5.0,71,0.00,,,0.00,Wunderground v.1.15,2013-02-03 14:42:00,
2013-02-03 07:47:00,9.8,2.9,30.46,WNW,296,4.0,5.0,73,0.00,,,0.00,Wunderground v.1.15,2013-02-03 14:47:00,
2013-02-03 07:52:00,9.8,2.6,30.46,WNW,296,4.0,4.0,72,0.00,,,0.00,Wunderground v.1.15,2013-02-03 14:52:00,
2013-02-03 07:57:00,9.6,2.1,30.46,WNW,296,5.0,6.0,71,0.00,,,0.00,Wunderground v.1.15,2013-02-03 14:57:00,
2013-02-03 08:02:00,9.4,1.9,30.46,WNW,296,4.0,4.0,71,0.00,,,0.00,Wunderground v.1.15,2013-02-03 15:02:00,
2013-02-03 08:07:00,9.4,2.2,30.45,WNW,296,4.0,5.0,72,0.00,,,0.00,Wunderground v.1.15,2013-02-03 15:07:00,
2013-02-03 08:12:00,9.4,2.2,30.46,WNW,296,5.0,5.0,72,0.00,,,0.00,Wunderground v.1.15,2013-02-03 15:12:00,
2013-02-03 08:17:00,9.1,1.6,30.45,WNW,296,3.0,5.0,71,0.00,,,0.00,Wunderground v.1.15,2013-02-03 15:17:00,
2013-02-03 08:22:00,8.6,1.1,30.45,WNW,296,2.0,4.0,71,0.00,,,0.00,Wunderground v.1.15,2013-02-03 15:22:00,
2013-02-03 08:27:00,8.3,0.8,30.46,WNW,296,3.0,4.0,71,0.00,,,0.00,Wunderground v.1.15,2013-02-03 15:27:00,
2013-02-03 08:32:00,8.4,1.5,30.46,WNW,296,3.0,4.0,73,0.00,,,0.00,Wunderground v.1.15,2013-02-03 15:32:00,
2013-02-03 08:37:00,9.1,2.8,30.46,WNW,296,4.0,4.0,75,0.00,,,0.00,Wunderground v.1.15,2013-02-03 15:37:00,
2013-02-03 08:42:00,10.3,4.2,30.46,WNW,296,3.0,4.0,76,0.00,,,0.00,Wunderground v.1.15,2013-02-03 15:42:00,
2013-02-03 08:47:00,11.7,5.6,30.45,WNW,296,4.0,5.0,76,0.00,,,0.00,Wunderground v.1.15,2013-02-03 15:47:00,
2013-02-03 08:52:00,13.1,6.7,30.45,WNW,296,3.0,5.0,75,0.00,,,0.00,Wunderground v.1.15,2013-02-03 15:52:00,
2013-02-03 08:57:00,14.3,7.5,30.44,WNW,296,4.0,5.0,74,0.00,,,0.00,Wunderground v.1.15,2013-02-03 15:57:00,
2013-02-03 09:02:00,15.3,7.9,30.44,WNW,296,2.0,4.0,72,0.00,,,0.00,Wunderground v.1.15,2013-02-03 16:02:00,
2013-02-03 09:07:00,15.4,7.0,30.44,WNW,296,2.0,4.0,69,0.00,,,0.00,Wunderground v.1.15,2013-02-03 16:07:00,
2013-02-03 09:12:00,15.1,6.8,30.44,WNW,296,2.0,3.0,69,0.00,,,0.00,Wunderground v.1.15,2013-02-03 16:12:00,
2013-02-03 09:17:00,15.1,6.4,30.44,WNW,296,3.0,5.0,68,0.00,,,0.00,Wunderground v.1.15,2013-02-03 16:17:00,
2013-02-03 09:22:00,15.8,7.4,30.44,WNW,296,3.0,4.0,69,0.00,,,0.00,Wunderground v.1.15,2013-02-03 16:22:00,
2013-02-03 09:27:00,16.6,8.2,30.44,WNW,296,3.0,4.0,69,0.00,,,0.00,Wunderground v.1.15,2013-02-03 16:27:00,
2013-02-03 09:32:00,17.6,9.5,30.43,WNW,296,1.0,4.0,70,0.00,,,0.00,Wunderground v.1.15,2013-02-03 16:32:00,
2013-02-03 09:37:00,18.7,10.5,30.43,WNW,296,0.0,4.0,70,0.00,,,0.00,Wunderground v.1.15,2013-02-03 16:37:00,
2013-02-03 09:42:00,19.7,11.2,30.42,WNW,296,0.0,1.0,69,0.00,,,0.00,Wunderground v.1.15,2013-02-03 16:42:00,
2013-02-03 09:47:00,20.4,10.8,30.42,WNW,296,0.0,1.0,66,0.00,,,0.00,Wunderground v.1.15,2013-02-03 16:47:00,
2013-02-03 09:52:00,20.2,10.3,30.42,WNW,296,4.0,4.0,65,0.00,,,0.00,Wunderground v.1.15,2013-02-03 16:52:00,
2013-02-03 09:57:00,20.0,9.8,30.42,WNW,296,3.0,4.0,64,0.00,,,0.00,Wunderground v.1.15,2013-02-03 16:57:00,
2013-02-03 10:02:00,20.1,10.2,30.42,WNW,296,2.0,3.0,65,0.00,,,0.00,Wunderground v.1.15,2013-02-03 17:02:00,
2013-02-03 10:07:00,20.6,11.0,30.42,WNW,296,3.0,4.0,66,0.00,,,0.00,Wunderground v.1.15,2013-02-03 17:07:00,
2013-02-03 10:12:00,21.0,12.1,30.41,WNW,296,3.0,3.0,68,0.00,,,0.00,Wunderground v.1.15,2013-02-03 17:12:00,
2013-02-03 10:17:00,21.5,12.6,30.42,WNW,296,2.0,3.0,68,0.00,,,0.00,Wunderground v.1.15,2013-02-03 17:17:00,
2013-02-03 10:22:00,22.2,12.6,30.42,WNW,296,1.0,3.0,66,0.00,,,0.00,Wunderground v.1.15,2013-02-03 17:22:00,
2013-02-03 10:27:00,23.0,13.0,30.41,WNW,296,0.0,3.0,65,0.00,,,0.00,Wunderground v.1.15,2013-02-03 17:27:00,
2013-02-03 10:32:00,23.9,13.1,30.42,WNW,296,0.0,1.0,63,0.00,,,0.00,Wunderground v.1.15,2013-02-03 17:32:00,
2013-02-03 10:37:00,24.9,13.0,30.41,WNW,296,0.0,1.0,60,0.00,,,0.00,Wunderground v.1.15,2013-02-03 17:37:00,
2013-02-03 10:42:00,25.8,13.8,30.41,WNW,296,0.0,0.0,60,0.00,,,0.00,Wunderground v.1.15,2013-02-03 17:42:00,
2013-02-03 10:47:00,26.4,13.6,30.40,WNW,296,0.0,0.0,58,0.00,,,0.00,Wunderground v.1.15,2013-02-03 17:47:00,
2013-02-03 10:52:00,27.0,14.9,30.40,WNW,296,0.0,0.0,60,0.00,,,0.00,Wunderground v.1.15,2013-02-03 17:52:00,
2013-02-03 10:57:00,27.5,15.8,30.39,WNW,296,0.0,0.0,61,0.00,,,0.00,Wunderground v.1.15,2013-02-03 17:57:00,
2013-02-03 11:02:00,27.8,14.9,30.39,WNW,296,0.0,0.0,58,0.00,,,0.00,Wunderground v.1.15,2013-02-03 18:02:00,
2013-02-03 11:07:00,27.9,15.4,30.39,WNW,296,0.0,0.0,59,0.00,,,0.00,Wunderground v.1.15,2013-02-03 18:07:00,
2013-02-03 11:12:00,28.4,16.3,30.38,WNW,296,0.0,0.0,60,0.00,,,0.00,Wunderground v.1.15,2013-02-03 18:12:00,
2013-02-03 11:17:00,29.2,17.0,30.38,WNW,296,0.0,0.0,60,0.00,,,0.00,Wunderground v.1.15,2013-02-03 18:17:00,
2013-02-03 11:22:00,29.8,16.4,30.38,WNW,296,0.0,0.0,57,0.00,,,0.00,Wunderground v.1.15,2013-02-03 18:22:00,
2013-02-03 11:27:00,29.6,16.2,30.38,West,279,0.0,4.0,57,0.00,,,0.00,Wunderground v.1.15,2013-02-03 18:27:00,
2013-02-03 11:32:00,28.8,15.5,30.38,West,279,0.0,1.0,57,0.00,,,0.00,Wunderground v.1.15,2013-02-03 18:32:00,
2013-02-03 11:37:00,28.9,16.0,30.37,West,279,0.0,1.0,58,0.00,,,0.00,Wunderground v.1.15,2013-02-03 18:37:00,
2013-02-03 11:42:00,29.0,16.8,30.37,West,276,0.0,0.0,60,0.00,,,0.00,Wunderground v.1.15,2013-02-03 18:42:00,
2013-02-03 11:47:00,29.4,16.8,30.36,West,276,0.0,0.0,59,0.00,,,0.00,Wunderground v.1.15,2013-02-03 18:47:00,
2013-02-03 11:52:00,29.5,16.1,30.35,West,276,0.0,0.0,57,0.00,,,0.00,Wunderground v.1.15,2013-02-03 18:52:00,
2013-02-03 11:57:00,29.3,15.5,30.34,West,276,0.0,0.0,56,0.00,,,0.00,Wunderground v.1.15,2013-02-03 18:57:00,
2013-02-03 12:02:00,28.9,15.6,30.34,West,276,0.0,0.0,57,0.00,,,0.00,Wunderground v.1.15,2013-02-03 19:02:00,
2013-02-03 12:07:00,29.2,16.2,30.34,West,276,0.0,0.0,58,0.00,,,0.00,Wunderground v.1.15,2013-02-03 19:07:00,
2013-02-03 12:12:00,30.4,17.0,30.33,West,276,0.0,0.0,57,0.00,,,0.00,Wunderground v.1.15,2013-02-03 19:12:00,
2013-02-03 12:17:00,31.3,16.1,30.33,West,276,0.0,0.0,53,0.00,,,0.00,Wunderground v.1.15,2013-02-03 19:17:00,
2013-02-03 12:22:00,31.8,16.6,30.32,West,276,0.0,0.0,53,0.00,,,0.00,Wunderground v.1.15,2013-02-03 19:22:00,
2013-02-03 12:27:00,32.0,16.3,30.32,West,276,0.0,0.0,52,0.00,,,0.00,Wunderground v.1.15,2013-02-03 19:27:00,
2013-02-03 12:32:00,32.3,17.5,30.31,West,276,0.0,0.0,54,0.00,,,0.00,Wunderground v.1.15,2013-02-03 19:32:00,
2013-02-03 12:37:00,33.1,19.1,30.30,West,276,0.0,0.0,56,0.00,,,0.00,Wunderground v.1.15,2013-02-03 19:37:00,
2013-02-03 12:42:00,34.0,19.9,30.30,NW,317,0.0,0.0,56,0.00,,,0.00,Wunderground v.1.15,2013-02-03 19:42:00,
2013-02-03 12:47:00,34.4,19.5,30.30,North,355,0.0,2.0,54,0.00,,,0.00,Wunderground v.1.15,2013-02-03 19:47:00,
2013-02-03 12:52:00,34.6,19.2,30.30,ENE,72,1.0,3.0,53,0.00,,,0.00,Wunderground v.1.15,2013-02-03 19:52:00,
2013-02-03 12:57:00,34.5,19.1,30.30,ESE,118,3.0,3.0,53,0.00,,,0.00,Wunderground v.1.15,2013-02-03 19:57:00,
2013-02-03 13:02:00,34.4,18.6,30.29,ESE,119,3.0,3.0,52,0.00,,,0.00,Wunderground v.1.15,2013-02-03 20:02:00,
2013-02-03 13:07:00,34.1,19.2,30.29,ESE,119,1.0,4.0,54,0.00,,,0.00,Wunderground v.1.15,2013-02-03 20:07:00,
2013-02-03 13:12:00,33.7,18.8,30.29,ESE,119,0.0,1.0,54,0.00,,,0.00,Wunderground v.1.15,2013-02-03 20:12:00,
2013-02-03 13:17:00,33.0,19.0,30.29,ESE,122,2.0,4.0,56,0.00,,,0.00,Wunderground v.1.15,2013-02-03 20:17:00,
2013-02-03 13:22:00,32.5,18.9,30.29,ESE,123,1.0,3.0,57,0.00,,,0.00,Wunderground v.1.15,2013-02-03 20:22:00,
2013-02-03 13:27:00,32.2,19.1,30.29,ESE,123,2.0,3.0,58,0.00,,,0.00,Wunderground v.1.15,2013-02-03 20:27:00,
2013-02-03 13:32:00,31.7,19.4,30.28,SE,144,6.0,7.0,60,0.00,,,0.00,Wunderground v.1.15,2013-02-03 20:32:00,
2013-02-03 13:37:00,31.1,19.6,30.28,SE,141,5.0,8.0,62,0.00,,,0.00,Wunderground v.1.15,2013-02-03 20:37:00,
2013-02-03 13:42:00,30.1,19.0,30.28,South,182,6.0,7.0,63,0.00,,,0.00,Wunderground v.1.15,2013-02-03 20:42:00,
2013-02-03 13:47:00,29.5,19.5,30.28,SSW,206,3.0,7.0,66,0.00,,,0.00,Wunderground v.1.15,2013-02-03 20:47:00,
2013-02-03 13:52:00,29.6,19.6,30.28,SSW,194,5.0,6.0,66,0.00,,,0.00,Wunderground v.1.15,2013-02-03 20:52:00,
2013-02-03 13:57:00,29.5,19.2,30.28,SSW,192,3.0,6.0,65,0.00,,,0.00,Wunderground v.1.15,2013-02-03 20:57:00,
2013-02-03 14:02:00,29.7,19.4,30.28,SSW,193,6.0,6.0,65,0.00,,,0.00,Wunderground v.1.15,2013-02-03 21:02:00,
2013-02-03 14:07:00,29.6,19.3,30.28,SSW,207,7.0,8.0,65,0.00,,,0.00,Wunderground v.1.15,2013-02-03 21:07:00,
2013-02-03 14:12:00,29.5,19.2,30.27,SSW,208,5.0,6.0,65,0.00,,,0.00,Wunderground v.1.15,2013-02-03 21:12:00,
2013-02-03 14:17:00,29.3,18.6,30.28,SW,215,11.0,11.0,64,0.00,,,0.00,Wunderground v.1.15,2013-02-03 21:17:00,
2013-02-03 14:22:00,28.9,19.0,30.27,SSW,200,5.0,8.0,66,0.00,,,0.00,Wunderground v.1.15,2013-02-03 21:22:00,
2013-02-03 14:27:00,29.0,19.4,30.27,SSW,205,7.0,8.0,67,0.00,,,0.00,Wunderground v.1.15,2013-02-03 21:27:00,
2013-02-03 14:32:00,29.3,19.7,30.27,SSW,198,7.0,8.0,67,0.00,,,0.00,Wunderground v.1.15,2013-02-03 21:32:00,
2013-02-03 14:37:00,29.6,19.3,30.25,South,172,5.0,8.0,65,0.00,,,0.00,Wunderground v.1.15,2013-02-03 21:37:00,
2013-02-03 14:42:00,29.8,19.5,30.26,SSW,199,7.0,9.0,65,0.00,,,0.00,Wunderground v.1.15,2013-02-03 21:42:00,
2013-02-03 14:47:00,30.0,18.9,30.26,South,182,7.0,9.0,63,0.00,,,0.00,Wunderground v.1.15,2013-02-03 21:47:00,
2013-02-03 14:52:00,30.1,19.4,30.25,SSE,161,6.0,7.0,64,0.00,,,0.00,Wunderground v.1.15,2013-02-03 21:52:00,
2013-02-03 14:57:00,30.3,19.6,30.26,South,186,7.0,9.0,64,0.00,,,0.00,Wunderground v.1.15,2013-02-03 21:57:00,
2013-02-03 15:02:00,30.2,19.5,30.25,SSE,152,7.0,8.0,64,0.00,,,0.00,Wunderground v.1.15,2013-02-03 22:02:00,
2013-02-03 15:07:00,30.1,19.0,30.24,SSE,155,6.0,9.0,63,0.00,,,0.00,Wunderground v.1.15,2013-02-03 22:07:00,
2013-02-03 15:12:00,30.6,20.2,30.24,SE,146,9.0,9.0,65,0.00,,,0.00,Wunderground v.1.15,2013-02-03 22:12:00,
2013-02-03 15:17:00,30.9,19.8,30.24,SE,138,6.0,9.0,63,0.00,,,0.00,Wunderground v.1.15,2013-02-03 22:17:00,
2013-02-03 15:22:00,31.1,19.2,30.25,SE,138,0.0,6.0,61,0.00,,,0.00,Wunderground v.1.15,2013-02-03 22:22:00,
2013-02-03 15:27:00,31.5,18.8,30.25,SE,138,4.0,6.0,59,0.00,,,0.00,Wunderground v.1.15,2013-02-03 22:27:00,
2013-02-03 15:32:00,31.8,19.9,30.25,SE,138,0.0,1.0,61,0.00,,,0.00,Wunderground v.1.15,2013-02-03 22:32:00,
2013-02-03 15:37:00,32.2,19.9,30.24,SE,137,0.0,1.0,60,0.00,,,0.00,Wunderground v.1.15,2013-02-03 22:37:00,
2013-02-03 15:42:00,32.2,19.9,30.24,SE,137,0.0,0.0,60,0.00,,,0.00,Wunderground v.1.15,2013-02-03 22:42:00,
2013-02-03 15:47:00,32.1,19.8,30.24,SE,137,0.0,1.0,60,0.00,,,0.00,Wunderground v.1.15,2013-02-03 22:47:00,
2013-02-03 15:52:00,32.1,20.2,30.23,SE,137,0.0,0.0,61,0.00,,,0.00,Wunderground v.1.15,2013-02-03 22:52:00,
2013-02-03 15:57:00,32.1,20.9,30.23,SE,137,0.0,0.0,63,0.00,,,0.00,Wunderground v.1.15,2013-02-03 22:57:00,
2013-02-03 16:02:00,32.1,20.9,30.23,SE,137,0.0,0.0,63,0.00,,,0.00,Wunderground v.1.15,2013-02-03 23:02:00,
2013-02-03 16:07:00,31.9,20.7,30.24,SE,129,0.0,4.0,63,0.00,,,0.00,Wunderground v.1.15,2013-02-03 23:07:00,
2013-02-03 16:12:00,32.1,21.3,30.24,SE,129,0.0,1.0,64,0.00,,,0.00,Wunderground v.1.15,2013-02-03 23:12:00,
2013-02-03 16:17:00,32.0,21.2,30.24,SE,138,2.0,5.0,64,0.00,,,0.00,Wunderground v.1.15,2013-02-03 23:17:00,
2013-02-03 16:22:00,31.5,20.3,30.23,SE,135,0.0,1.0,63,0.00,,,0.00,Wunderground v.1.15,2013-02-03 23:22:00,
2013-02-03 16:27:00,31.2,20.8,30.24,ENE,59,3.0,5.0,65,0.00,,,0.00,Wunderground v.1.15,2013-02-03 23:27:00,
2013-02-03 16:32:00,31.2,21.5,30.23,ENE,59,3.0,3.0,67,0.00,,,0.00,Wunderground v.1.15,2013-02-03 23:32:00,
2013-02-03 16:37:00,31.1,21.1,30.23,ENE,59,2.0,4.0,66,0.00,,,0.00,Wunderground v.1.15,2013-02-03 23:37:00,
2013-02-03 16:42:00,30.7,20.7,30.24,ENE,59,3.0,5.0,66,0.00,,,0.00,Wunderground v.1.15,2013-02-03 23:42:00,
2013-02-03 16:47:00,30.1,20.5,30.24,ENE,59,2.0,5.0,67,0.00,,,0.00,Wunderground v.1.15,2013-02-03 23:47:00,
2013-02-03 16:52:00,29.7,20.1,30.24,ENE,59,0.0,2.0,67,0.00,,,0.00,Wunderground v.1.15,2013-02-03 23:52:00,
2013-02-03 16:57:00,29.4,20.1,30.24,ENE,59,0.0,2.0,68,0.00,,,0.00,Wunderground v.1.15,2013-02-03 23:57:00,
2013-02-03 17:02:00,29.4,20.1,30.24,ENE,59,0.0,0.0,68,0.00,,,0.00,Wunderground v.1.15,2013-02-04 00:02:00,
2013-02-03 17:07:00,29.4,20.1,30.24,ENE,59,0.0,0.0,68,0.00,,,0.00,Wunderground v.1.15,2013-02-04 00:07:00,
2013-02-03 17:12:00,29.4,19.8,30.24,ENE,59,0.0,0.0,67,0.00,,,0.00,Wunderground v.1.15,2013-02-04 00:12:00,
2013-02-03 17:17:00,29.5,20.2,30.23,ENE,59,2.0,2.0,68,0.00,,,0.00,Wunderground v.1.15,2013-02-04 00:17:00,
2013-02-03 17:22:00,29.2,20.6,30.23,ENE,59,1.0,2.0,70,0.00,,,0.00,Wunderground v.1.15,2013-02-04 00:22:00,
2013-02-03 17:27:00,28.6,20.4,30.23,ENE,59,2.0,3.0,71,0.00,,,0.00,Wunderground v.1.15,2013-02-04 00:27:00,
2013-02-03 17:32:00,28.2,20.0,30.24,ENE,59,2.0,3.0,71,0.00,,,0.00,Wunderground v.1.15,2013-02-04 00:32:00,
2013-02-03 17:37:00,27.5,19.7,30.24,ENE,59,2.0,3.0,72,0.00,,,0.00,Wunderground v.1.15,2013-02-04 00:37:00,
2013-02-03 17:42:00,27.2,19.4,30.24,ENE,59,0.0,2.0,72,0.00,,,0.00,Wunderground v.1.15,2013-02-04 00:42:00,
2013-02-03 17:47:00,26.8,19.3,30.25,ENE,59,1.0,5.0,73,0.00,,,0.00,Wunderground v.1.15,2013-02-04 00:47:00,
2013-02-03 17:52:00,26.3,18.8,30.24,ENE,59,1.0,2.0,73,0.00,,,0.00,Wunderground v.1.15,2013-02-04 00:52:00,
2013-02-03 17:57:00,26.2,18.7,30.25,ENE,59,2.0,3.0,73,0.00,,,0.00,Wunderground v.1.15,2013-02-04 00:57:00,
2013-02-03 18:02:00,26.0,18.5,30.25,ENE,59,3.0,3.0,73,0.00,,,0.00,Wunderground v.1.15,2013-02-04 01:02:00,
2013-02-03 18:07:00,25.8,18.7,30.25,ENE,59,3.0,3.0,74,0.00,,,0.00,Wunderground v.1.15,2013-02-04 01:07:00,
2013-02-03 18:12:00,25.6,18.5,30.25,ENE,59,2.0,2.0,74,0.00,,,0.00,Wunderground v.1.15,2013-02-04 01:12:00,
2013-02-03 18:17:00,25.2,18.1,30.25,ENE,59,2.0,2.0,74,0.00,,,0.00,Wunderground v.1.15,2013-02-04 01:17:00,
2013-02-03 18:22:00,24.0,16.9,30.25,ENE,59,4.0,5.0,74,0.00,,,0.00,Wunderground v.1.15,2013-02-04 01:22:00,
2013-02-03 18:27:00,24.2,17.7,30.25,ENE,59,3.0,5.0,76,0.00,,,0.00,Wunderground v.1.15,2013-02-04 01:27:00,
2013-02-03 18:32:00,24.3,17.5,30.26,ENE,59,3.0,4.0,75,0.00,,,0.00,Wunderground v.1.15,2013-02-04 01:32:00,
2013-02-03 18:37:00,23.9,17.1,30.26,ENE,59,3.0,5.0,75,0.00,,,0.00,Wunderground v.1.15,2013-02-04 01:37:00,
2013-02-03 18:42:00,23.8,17.0,30.26,ENE,59,0.0,3.0,75,0.00,,,0.00,Wunderground v.1.15,2013-02-04 01:42:00,
2013-02-03 18:47:00,23.8,17.3,30.26,ENE,59,0.0,3.0,76,0.00,,,0.00,Wunderground v.1.15,2013-02-04 01:47:00,
2013-02-03 18:52:00,23.9,17.4,30.25,ENE,59,0.0,0.0,76,0.00,,,0.00,Wunderground v.1.15,2013-02-04 01:52:00,
2013-02-03 18:57:00,24.0,17.5,30.25,ENE,59,0.0,0.0,76,0.00,,,0.00,Wunderground v.1.15,2013-02-04 01:57:00,
2013-02-03 19:02:00,24.1,17.6,30.25,ENE,59,2.0,3.0,76,0.00,,,0.00,Wunderground v.1.15,2013-02-04 02:02:00,
2013-02-03 19:07:00,24.4,17.9,30.26,ENE,59,2.0,4.0,76,0.00,,,0.00,Wunderground v.1.15,2013-02-04 02:07:00,
2013-02-03 19:12:00,24.7,18.2,30.26,ENE,59,3.0,4.0,76,0.00,,,0.00,Wunderground v.1.15,2013-02-04 02:12:00,
2013-02-03 19:17:00,24.9,18.4,30.25,ENE,59,2.0,4.0,76,0.00,,,0.00,Wunderground v.1.15,2013-02-04 02:17:00,
2013-02-03 19:22:00,25.1,18.3,30.25,ENE,59,2.0,3.0,75,0.00,,,0.00,Wunderground v.1.15,2013-02-04 02:22:00,
2013-02-03 19:27:00,25.3,18.2,30.25,ENE,59,2.0,3.0,74,0.00,,,0.00,Wunderground v.1.15,2013-02-04 02:27:00,
2013-02-03 19:32:00,25.5,18.4,30.24,ENE,59,1.0,2.0,74,0.00,,,0.00,Wunderground v.1.15,2013-02-04 02:32:00,
2013-02-03 19:37:00,25.4,18.3,30.25,ENE,59,1.0,2.0,74,0.00,,,0.00,Wunderground v.1.15,2013-02-04 02:37:00,
2013-02-03 19:42:00,25.3,18.5,30.24,ENE,59,0.0,2.0,75,0.00,,,0.00,Wunderground v.1.15,2013-02-04 02:42:00,
2013-02-03 19:47:00,25.3,18.5,30.25,ENE,59,0.0,2.0,75,0.00,,,0.00,Wunderground v.1.15,2013-02-04 02:47:00,
2013-02-03 19:52:00,25.2,18.4,30.25,ENE,59,0.0,0.0,75,0.00,,,0.00,Wunderground v.1.15,2013-02-04 02:52:00,
2013-02-03 19:57:00,25.3,18.5,30.26,ENE,59,2.0,3.0,75,0.00,,,0.00,Wunderground v.1.15,2013-02-04 02:57:00,
2013-02-03 20:02:00,25.4,18.6,30.25,ENE,59,4.0,4.0,75,0.00,,,0.00,Wunderground v.1.15,2013-02-04 03:02:00,
2013-02-03 20:07:00,25.5,18.7,30.25,ENE,59,3.0,5.0,75,0.00,,,0.00,Wunderground v.1.15,2013-02-04 03:07:00,
2013-02-03 20:12:00,25.4,18.6,30.25,ENE,59,2.0,3.0,75,0.00,,,0.00,Wunderground v.1.15,2013-02-04 03:12:00,
2013-02-03 20:17:00,25.2,18.4,30.25,ENE,59,2.0,4.0,75,0.00,,,0.00,Wunderground v.1.15,2013-02-04 03:17:00,
2013-02-03 20:22:00,25.3,18.5,30.24,ENE,59,4.0,5.0,75,0.00,,,0.00,Wunderground v.1.15,2013-02-04 03:22:00,
2013-02-03 20:27:00,25.3,18.5,30.24,West,272,5.0,7.0,75,0.00,,,0.00,Wunderground v.1.15,2013-02-04 03:27:00,
2013-02-03 20:32:00,25.6,18.5,30.24,WNW,284,7.0,7.0,74,0.00,,,0.00,Wunderground v.1.15,2013-02-04 03:32:00,
2013-02-03 20:37:00,26.0,18.2,30.24,WNW,282,7.0,8.0,72,0.00,,,0.00,Wunderground v.1.15,2013-02-04 03:37:00,
2013-02-03 20:42:00,26.0,17.9,30.24,West,281,5.0,7.0,71,0.00,,,0.00,Wunderground v.1.15,2013-02-04 03:42:00,
2013-02-03 20:47:00,25.7,17.6,30.24,WNW,282,4.0,7.0,71,0.00,,,0.00,Wunderground v.1.15,2013-02-04 03:47:00,
2013-02-03 20:52:00,25.4,17.6,30.23,West,281,4.0,5.0,72,0.00,,,0.00,Wunderground v.1.15,2013-02-04 03:52:00,
2013-02-03 20:57:00,25.4,17.6,30.24,West,281,5.0,6.0,72,0.00,,,0.00,Wunderground v.1.15,2013-02-04 03:57:00,
2013-02-03 21:02:00,25.2,17.1,30.23,West,281,6.0,6.0,71,0.00,,,0.00,Wunderground v.1.15,2013-02-04 04:02:00,
2013-02-03 21:07:00,24.8,17.1,30.23,West,275,3.0,8.0,72,0.00,,,0.00,Wunderground v.1.15,2013-02-04 04:07:00,
2013-02-03 21:12:00,25.4,17.9,30.24,West,273,0.0,5.0,73,0.00,,,0.00,Wunderground v.1.15,2013-02-04 04:12:00,
2013-02-03 21:17:00,25.3,17.5,30.23,ENE,74,1.0,5.0,72,0.00,,,0.00,Wunderground v.1.15,2013-02-04 04:17:00,
2013-02-03 21:22:00,24.9,17.1,30.23,East,82,0.0,0.0,72,0.00,,,0.00,Wunderground v.1.15,2013-02-04 04:22:00,
2013-02-03 21:27:00,24.5,16.8,30.23,East,82,3.0,3.0,72,0.00,,,0.00,Wunderground v.1.15,2013-02-04 04:27:00,
2013-02-03 21:32:00,24.5,17.1,30.23,East,82,0.0,3.0,73,0.00,,,0.00,Wunderground v.1.15,2013-02-04 04:32:00,
2013-02-03 21:37:00,24.9,17.1,30.23,East,82,1.0,3.0,72,0.00,,,0.00,Wunderground v.1.15,2013-02-04 04:37:00,
2013-02-03 21:42:00,25.6,17.2,30.24,East,82,0.0,1.0,70,0.00,,,0.00,Wunderground v.1.15,2013-02-04 04:42:00,
2013-02-03 21:47:00,25.7,16.6,30.24,East,82,0.0,2.0,68,0.00,,,0.00,Wunderground v.1.15,2013-02-04 04:47:00,
2013-02-03 21:52:00,25.4,16.0,30.24,East,82,1.0,3.0,67,0.00,,,0.00,Wunderground v.1.15,2013-02-04 04:52:00,
2013-02-03 21:57:00,25.2,16.1,30.24,East,82,0.0,3.0,68,0.00,,,0.00,Wunderground v.1.15,2013-02-04 04:57:00,
2013-02-03 22:01:00,25.2,16.1,30.25,East,82,2.0,2.0,68,0.00,,,0.00,Wunderground v.1.15,2013-02-04 05:01:00,
2013-02-03 22:02:00,25.1,16.0,30.24,East,82,2.0,2.0,68,0.00,,,0.00,Wunderground v.1.15,2013-02-04 05:02:00,
2013-02-03 22:07:00,24.3,15.3,30.24,East,82,0.0,3.0,68,0.00,,,0.00,Wunderground v.1.15,2013-02-04 05:07:00,
2013-02-03 22:12:00,23.9,15.5,30.23,SSW,212,6.0,7.0,70,0.00,,,0.00,Wunderground v.1.15,2013-02-04 05:12:00,
2013-02-03 22:17:00,21.8,13.8,30.23,SW,227,5.0,8.0,71,0.00,,,0.00,Wunderground v.1.15,2013-02-04 05:17:00,
2013-02-03 22:22:00,21.2,14.2,30.23,SSW,211,6.0,6.0,74,0.00,,,0.00,Wunderground v.1.15,2013-02-04 05:22:00,
2013-02-03 22:27:00,22.0,14.7,30.24,SSW,209,4.0,7.0,73,0.00,,,0.00,Wunderground v.1.15,2013-02-04 05:27:00,
2013-02-03 22:32:00,21.9,14.6,30.24,SSW,209,2.0,4.0,73,0.00,,,0.00,Wunderground v.1.15,2013-02-04 05:32:00,
2013-02-03 22:37:00,21.5,14.2,30.24,SSW,209,2.0,4.0,73,0.00,,,0.00,Wunderground v.1.15,2013-02-04 05:37:00,
2013-02-03 22:42:00,20.8,13.8,30.24,SSW,209,2.0,2.0,74,0.00,,,0.00,Wunderground v.1.15,2013-02-04 05:42:00,
2013-02-03 22:47:00,20.7,14.0,30.24,SSW,209,1.0,3.0,75,0.00,,,0.00,Wunderground v.1.15,2013-02-04 05:47:00,
2013-02-03 22:52:00,21.1,15.0,30.24,SSW,209,3.0,3.0,77,0.00,,,0.00,Wunderground v.1.15,2013-02-04 05:52:00,
2013-02-03 22:57:00,20.7,14.3,30.24,SSW,209,4.0,5.0,76,0.00,,,0.00,Wunderground v.1.15,2013-02-04 05:57:00,
2013-02-03 23:02:00,20.7,14.3,30.24,SW,229,5.0,6.0,76,0.00,,,0.00,Wunderground v.1.15,2013-02-04 06:02:00,
2013-02-03 23:07:00,20.2,13.5,30.24,SW,229,3.0,6.0,75,0.00,,,0.00,Wunderground v.1.15,2013-02-04 06:07:00,
2013-02-03 23:12:00,19.9,13.6,30.25,SW,229,0.0,3.0,76,0.00,,,0.00,Wunderground v.1.15,2013-02-04 06:12:00,
2013-02-03 23:17:00,20.0,13.9,30.24,SW,229,0.0,3.0,77,0.00,,,0.00,Wunderground v.1.15,2013-02-04 06:17:00,
2013-02-03 23:22:00,20.4,14.3,30.24,SW,229,0.0,2.0,77,0.00,,,0.00,Wunderground v.1.15,2013-02-04 06:22:00,
2013-02-03 23:27:00,20.5,14.4,30.24,SW,229,0.0,2.0,77,0.00,,,0.00,Wunderground v.1.15,2013-02-04 06:27:00,
2013-02-03 23:32:00,19.9,13.6,30.24,SW,229,2.0,3.0,76,0.00,,,0.00,Wunderground v.1.15,2013-02-04 06:32:00,
2013-02-03 23:37:00,19.6,13.3,30.24,SW,229,3.0,5.0,76,0.00,,,0.00,Wunderground v.1.15,2013-02-04 06:37:00,
2013-02-03 23:42:00,20.1,14.3,30.24,SW,229,0.0,2.0,78,0.00,,,0.00,Wunderground v.1.15,2013-02-04 06:42:00,
2013-02-03 23:47:00,20.5,14.7,30.23,SW,229,1.0,2.0,78,0.00,,,0.00,Wunderground v.1.15,2013-02-04 06:47:00,
2013-02-03 23:52:00,20.3,14.5,30.23,SW,229,2.0,7.0,78,0.00,,,0.00,Wunderground v.1.15,2013-02-04 06:52:00,
2013-02-03 23:57:00,20.4,14.6,30.23,WSW,254,3.0,7.0,78,0.00,,,0.00,Wunderground v.1.15,2013-02-04 06:57:00,